Location: DARK SKY Beskydy - Park tmavé oblohy, www.darkskybeskydy.cz
(49.4926°N, 18.5016°E)
Time: 06:09:07
(UTC+01:00)

Vanguard 1 - Pass Details

Date: 26 February 2024
Orbit: 649 x 3824 km, 34.2° (Epoch: 11 November)

Event Time Altitude Azimuth Distance (km) Brightness Sun altitude
Rises 18:41:36 0° 219° (SW) 5,102 14.3 -13.5°
Reaches altitude 10° 18:44:47 10° 211° (SSW) 4,484 13.8 -14.0°
Maximum altitude 18:56:33 37° 150° (SSE) 3,907 12.8 -16.0°
Enters shadow 19:08:17 21° 104° (ESE) 5,615 13.2 -17.8°
Drops below altitude 10° 19:14:28 10° 94° (E) 6,775 - -18.8°
Sets 19:20:45 0° 88° (E) 7,951 - -19.8°
